Colorado Springs, CO

6:30 PM MDT on August 28, 2016 (GMT -0600)
Usaf Academy

Weather History for KAFF - September, 2013

Change the Weather History Date:

Friday, September 27, 2013

  Actual Average Record
Temperature  
Mean Temperature 52 °F -  
Max Temperature 64 °F 66 °F 84 °F (2001)
Min Temperature 39 °F 39 °F 23 °F (1996)
Degree Days  
Heating Degree Days 13    
Growing Degree Days 2 (Base 50)    
Moisture  
Dew Point 39 °F    
Average Humidity 68    
Maximum Humidity 85    
Minimum Humidity 34    
Precipitation  
Precipitation 0.00 in - - ()
Sea Level Pressure  
Sea Level Pressure 29.78 in    
Wind  
Wind Speed 12 mph (North)    
Max Wind Speed 22 mph    
Max Gust Speed 37 mph    
Visibility 10 miles    
Events Rain    
Averages and records for this station are not official NWS values.
T = Trace of Precipitation, MM = Missing Value Source: NWS Daily Summary

Daily Weather History Graph

Daily Weather History Graph

Search for Another Location

Airport or City:

Trip Planner

Search our weather history database for the weather conditions in past years. The results will help you decide how hot, cold, wet, or windy it might be!

Date:

Astronomy

Sep. 27, 2013 Rise Set
Actual Time 6:51 AM MDT 6:47 PM MDT
Civil Twilight 6:25 AM MDT 7:14 PM MDT
Nautical Twilight 5:54 AM MDT 7:45 PM MDT
Astronomical Twilight 5:22 AM MDT 8:16 PM MDT
Moon No Moon Rise 2:25 PM MDT (9/27)
Length of Visible Light 12h 49m
Length of Day
11h 56m
Last Quarter, 44% of the Moon is Illuminated
Sep 27
Last Quarter
Oct 4
New
Oct 11
First Quarter
Oct 18
Full
Oct 26
Last Quarter

Hourly Weather History & Observations

Time (MDT) Temp. Windchill Dew Point Humidity Pressure Visibility Wind Dir Wind Speed Gust Speed Precip Events Conditions
12:58 AM 45.7 °F 41.0 °F 39.9 °F 80% 29.62 in 10.0 mi North 9.2 mph - N/A   Clear
1:58 AM 45.5 °F 42.5 °F 36.7 °F 71% 29.60 in 10.0 mi NNW 5.8 mph - N/A   Clear
2:58 AM 48.9 °F - 34.0 °F 56% 29.57 in 10.0 mi WSW 1.2 mph - N/A   Clear
3:58 AM 56.7 °F - 30.0 °F 36% 29.53 in 10.0 mi Variable 4.6 mph - N/A   Clear
4:58 AM 57.0 °F - 29.8 °F 36% 29.55 in 10.0 mi Variable 5.8 mph - N/A   Clear
5:58 AM 52.5 °F - 31.1 °F 44% 29.57 in 10.0 mi SSE 12.7 mph - N/A   Clear
6:58 AM 55.4 °F - 29.3 °F 37% 29.57 in 10.0 mi South 15.0 mph - N/A   Clear
7:58 AM 57.2 °F - 32.4 °F 39% 29.63 in 10.0 mi South 8.1 mph - N/A   Clear
8:58 AM 62.2 °F - 33.4 °F 34% 29.62 in 10.0 mi Variable 2.3 mph - N/A   Clear
9:58 AM 61.0 °F - 41.0 °F 48% 29.61 in 10.0 mi NNW 9.2 mph 17.3 mph N/A   Clear
10:58 AM 64.2 °F - 39.2 °F 40% 29.61 in 10.0 mi Variable 4.6 mph - N/A   Partly Cloudy
11:58 AM 61.3 °F - 44.2 °F 53% 29.62 in 10.0 mi NNW 18.4 mph 24.2 mph N/A   Scattered Clouds
12:48 PM 55.4 °F - 46.4 °F 72% 29.79 in 10.0 mi NNW 20.7 mph 25.3 mph N/A Rain Light Rain
12:58 PM 53.1 °F - 46.0 °F 77% 29.66 in 10.0 mi NNW 20.7 mph 28.8 mph 0.00 in Rain Light Rain
1:00 PM 51.8 °F - 44.6 °F 76% 29.79 in 10.0 mi NNW 20.7 mph 28.8 mph N/A   Scattered Clouds
1:58 PM 49.6 °F - 44.2 °F 82% 29.70 in 10.0 mi North 20.7 mph 27.6 mph 0.00 in   Partly Cloudy
2:33 PM 51.8 °F - 44.6 °F 76% 29.82 in 10.0 mi North 17.3 mph 23.0 mph N/A   Mostly Cloudy
2:58 PM 52.2 °F - 43.7 °F 73% 29.67 in 10.0 mi North 20.7 mph 27.6 mph N/A   Overcast
3:58 PM 51.3 °F - 43.3 °F 74% 29.65 in 10.0 mi North 19.6 mph 31.1 mph N/A   Overcast
4:58 PM 49.5 °F - 42.6 °F 77% 29.69 in 10.0 mi North 20.7 mph - N/A   Overcast
5:08 PM 50.0 °F - 42.8 °F 76% 29.85 in 10.0 mi North 21.9 mph - N/A   Mostly Cloudy
5:18 PM 48.2 °F - 42.8 °F 82% 29.85 in 10.0 mi North 19.6 mph - N/A   Overcast
5:43 PM 48.2 °F - 42.8 °F 82% 29.87 in 10.0 mi North 19.6 mph - N/A   Scattered Clouds
5:58 PM 47.7 °F - 41.7 °F 80% 29.75 in 10.0 mi North 18.4 mph - N/A   Scattered Clouds
6:08 PM 48.2 °F - 42.8 °F 82% 29.89 in 10.0 mi North 16.1 mph - N/A   Mostly Cloudy
6:33 PM 46.4 °F 39.5 °F 41.0 °F 81% 29.89 in 10.0 mi North 17.3 mph 27.6 mph N/A   Scattered Clouds
6:58 PM 46.0 °F 39.6 °F 41.7 °F 85% 29.76 in 10.0 mi North 15.0 mph 19.6 mph N/A   Partly Cloudy
7:03 PM 46.4 °F 39.2 °F 41.0 °F 81% 29.90 in 10.0 mi NNW 18.4 mph 23.0 mph N/A   Partly Cloudy
7:30 PM 48.2 °F - 37.4 °F 66% 29.92 in 10.0 mi WNW 17.3 mph 36.8 mph N/A   Mostly Cloudy
7:58 PM 48.4 °F - 34.7 °F 59% 29.78 in 10.0 mi NNW 17.3 mph 21.9 mph N/A   Mostly Cloudy
7:59 PM 48.2 °F - 33.8 °F 58% 29.94 in 10.0 mi NW 15.0 mph 21.9 mph N/A   Mostly Cloudy
8:58 PM 46.9 °F - 37.4 °F 69% 29.80 in 10.0 mi North 9.2 mph - N/A   Overcast
9:58 PM 43.3 °F 37.2 °F 37.8 °F 81% 29.88 in 10.0 mi NNW 11.5 mph - N/A   Scattered Clouds
10:03 PM 42.8 °F 37.0 °F 37.4 °F 81% 30.02 in 10.0 mi NNW 10.4 mph - N/A   Mostly Cloudy
10:08 PM 44.6 °F 37.8 °F 37.4 °F 76% 30.02 in 10.0 mi North 15.0 mph - N/A   Mostly Cloudy
10:13 PM 42.8 °F 35.1 °F 37.4 °F 81% 30.02 in 10.0 mi NNE 16.1 mph - N/A   Mostly Cloudy
10:18 PM 42.8 °F 35.4 °F 37.4 °F 81% 30.02 in 10.0 mi NNE 15.0 mph - N/A   Mostly Cloudy
10:23 PM 42.8 °F 36.2 °F 37.4 °F 81% 30.03 in 10.0 mi NNE 12.7 mph - N/A   Scattered Clouds
10:58 PM 40.3 °F 34.9 °F 35.2 °F 82% 29.89 in 10.0 mi North 8.1 mph 17.3 mph N/A   Clear
11:04 PM 41.0 °F 33.5 °F 33.8 °F 76% 30.04 in 10.0 mi North 13.8 mph - N/A   Clear
11:58 PM 39.4 °F 35.2 °F 34.2 °F 82% 29.93 in 10.0 mi NE 5.8 mph - N/A   Clear